Location: Haliburton Scout Reserve
(45.0900°N, 78.3200°W)
Time: 10:00:20
(UTC-05:00)

Envisat - Visible Passes

Search period start: 03 December 2022 00:00
Search period end: 13 December 2022 00:00
Orbit: 763 x 765 km, 98.2° (Epoch: 03 December)

Date Brightness Start Highest point End Pass type
(mag) Time Alt. Az. Time Alt. Az. Time Alt. Az.
03 Dec 5.2 04:22:50 10° NNE 04:23:54 16° NNE 04:23:54 16° NNE visible
03 Dec 4.8 06:03:07 10° NNW 06:04:05 13° NNW 06:04:05 13° NNW visible
04 Dec 5.8 03:46:13 10° NNE 03:46:18 10° NNE 03:46:18 10° NNE visible
04 Dec 4.8 05:25:13 10° N 05:26:29 17° NNW 05:26:29 17° NNW visible
05 Dec 5.1 04:47:53 10° N 04:48:54 16° N 04:48:54 16° N visible
06 Dec 5.6 04:10:57 10° NNE 04:11:19 12° NNE 04:11:19 12° NNE visible
06 Dec 5.0 05:50:47 10° NNW 05:51:29 13° NNW 05:51:29 13° NNW visible
06 Dec 6.1 17:10:04 10° WSW 17:11:58 12° W 17:13:53 10° WNW visible
07 Dec 5.0 05:13:06 10° N 05:13:55 14° N 05:13:55 14° N visible
08 Dec 5.4 04:35:54 10° NNE 04:36:21 13° NNE 04:36:21 13° NNE visible
09 Dec 5.1 05:38:33 10° N 05:38:58 12° NNW 05:38:58 12° NNW visible
09 Dec 5.9 16:56:52 10° SW 16:59:51 16° W 17:02:52 10° NW visible
10 Dec 5.3 05:01:02 10° N 05:01:25 12° N 05:01:25 12° N visible
12 Dec 5.3 05:26:22 10° N 05:26:30 11° N 05:26:30 11° N visible
